Weather History for London-Corbin, KY

Change the Weather History Date:

Friday, December 2, 2011

  Actual Average Record
Temperature  
Mean Temperature 40 °F 42 °F  
Max Temperature 55 °F 52 °F 78 °F (1982)
Min Temperature 24 °F 32 °F 10 °F (1960)
Degree Days  
Heating Degree Days 25 23  
Month to date heating degree days 53 46  
Since 1 July heating degree days 905 876  
Cooling Degree Days 0 0  
Month to date cooling degree days 0 0  
Year to date cooling degree days 1249 1190  
Moisture  
Dew Point 28 °F    
Average Humidity 62    
Maximum Humidity 92    
Minimum Humidity 32    
Precipitation  
Precipitation 0.00 in 0.14 in 2.33 in (1991)
Month to date precipitation 0.00 0.28  
Year to date precipitation 56.90 43.18  
Sea Level Pressure  
Sea Level Pressure 30.43 in    
Wind  
Wind Speed 0 mph (SSW)    
Max Wind Speed 8 mph    
Max Gust Speed 10 mph    
Visibility 10 miles    
Events      
T = Trace of Precipitation, MM = Missing Value Source: NWS Daily Summary

Daily Weather History Graph

Daily Weather History Graph

Search for Another Location

Airport:

Trip Planner

Search our weather history database for the weather conditions in past years. The results will help you decide how hot, cold, wet, or windy it might be!

Date:

Astronomy

Dec. 02, 2011 Rise Set
Actual Time 7:31 AM EST 5:19 PM EST
Civil Twilight 7:03 AM EST 5:47 PM EST
Nautical Twilight 6:30 AM EST 6:20 PM EST
Astronomical Twilight 5:59 AM EST 6:51 PM EST
Moon 12:49 PM EST (12/2) 12:10 AM EST (12/2)
Length of Visible Light 10h 44m
Length of Day
9h 47m
First Quarter, 53% of the Moon is Illuminated
Dec 2
First Quarter
Dec 10
Full
Dec 17
Last Quarter
Dec 24
New
Jan 1
First Quarter

Hourly Weather History & Observations

Time (EST) Temp. Windchill Dew Point Humidity Pressure Visibility Wind Dir Wind Speed Gust Speed Precip Events Conditions
12:53 AM 28.0 °F - 25.0 °F 88% 30.35 in 10.0 mi Calm Calm - N/A   Clear
1:53 AM 26.1 °F - 25.0 °F 96% 30.35 in 10.0 mi Calm Calm - N/A   Clear
2:53 AM 26.1 °F - 24.1 °F 92% 30.35 in 10.0 mi Calm Calm - N/A   Clear
3:53 AM 26.1 °F - 23.0 °F 88% 30.36 in 10.0 mi Calm Calm - N/A   Clear
4:53 AM 25.0 °F - 23.0 °F 92% 30.39 in 10.0 mi Calm Calm - N/A   Clear
5:53 AM 24.8 °F - 23.0 °F 93% 30.38 in 10.0 mi Calm Calm - N/A   Clear
6:53 AM 25.0 °F - 21.9 °F 88% 30.43 in 10.0 mi Calm Calm - N/A   Clear
7:53 AM 25.0 °F - 21.9 °F 88% 30.45 in 9.0 mi Calm Calm - N/A   Clear
8:53 AM 30.9 °F - 28.9 °F 92% 30.46 in 10.0 mi Calm Calm - N/A   Clear
9:53 AM 37.0 °F - 32.0 °F 82% 30.46 in 10.0 mi Calm Calm - N/A   Clear
10:53 AM 44.1 °F 41.5 °F 32.0 °F 63% 30.46 in 10.0 mi SSW 4.6 mph - N/A   Clear
11:53 AM 48.9 °F - 32.0 °F 52% 30.45 in 10.0 mi Calm Calm - N/A   Clear
12:53 PM 50.0 °F - 30.0 °F 46% 30.43 in 10.0 mi Variable 4.6 mph - N/A   Clear
1:53 PM 53.1 °F - 28.0 °F 38% 30.43 in 10.0 mi Calm Calm - N/A   Clear
2:53 PM 53.1 °F - 26.1 °F 35% 30.42 in 10.0 mi Calm Calm - N/A   Clear
3:53 PM 55.0 °F - 26.1 °F 33% 30.41 in 10.0 mi Calm Calm - N/A   Clear
4:53 PM 53.1 °F - 25.0 °F 34% 30.42 in 10.0 mi Calm Calm - N/A   Clear
5:53 PM 45.0 °F - 30.0 °F 56% 30.45 in 10.0 mi Calm Calm - N/A   Clear
6:53 PM 42.1 °F - 32.0 °F 67% 30.47 in 10.0 mi Calm Calm - N/A   Clear
7:53 PM 39.9 °F - 32.0 °F 73% 30.48 in 10.0 mi Calm Calm - N/A   Clear
8:53 PM 37.9 °F - 30.9 °F 76% 30.49 in 10.0 mi Calm Calm - N/A   Clear
9:53 PM 37.0 °F - 30.9 °F 79% 30.50 in 10.0 mi Calm Calm - N/A   Clear
10:53 PM 35.1 °F - 30.9 °F 85% 30.49 in 10.0 mi Calm Calm - N/A   Clear
11:53 PM 35.1 °F - 30.9 °F 85% 30.48 in 10.0 mi Calm Calm - N/A   Clear